User: anonymous   Login
Location: Beddau
(51.5575°N, 3.3561°W)
Time: 00:19:06
(UTC+00:00)
Language:

Cosmos 1066 Rocket - Orbit

View from above orbital plane
View from above orbital plane
View from above satellite
View from above satellite

Ground track
Ground track

The orbit data is extracted from the following two-line orbital elements,

1 11166U 78121B   21125.42953864  .00000023  00000-0  51070-5 0  9999
2 11166  81.2412 232.7065 0066433 184.5308 175.5273 14.13774972184122
Epoch (UTC): 05 May 2021 10:18:32
Eccentricity: 0.0066433
inclination: 81.2412°
perigee height: 798 km
apogee height: 894 km
right ascension of ascending node: 232.7065°
argument of perigee: 184.5308°
revolutions per day: 14.13774972
mean anomaly at epoch: 175.5273°
orbit number at epoch: 18412

The dashed part of the orbit path shows where the satellite is in the earth's shadow,  

DLR